Regional Weather Roundup
Issued by NWS Sioux Falls, SD

Home | Current Version | Previous Version | Text Only | Print | Product List | Glossary On
Versions: 1 2 3 4 5 6 7 8 9 10 11 12 13 14 15 16 17 18 19 20 21 22 23 24 25 26 27 28 29 30 31 32 33 34 35 36 37 38 39 40 41 42 43 44 45 46 47 48 49 50
000
ASUS43 KFSD 310402
RWRFSD

WEATHER ROUNDUP FOR SE SOUTH DAKOTA/SW MINNESOTA/NW IOWA
NATIONAL WEATHER SERVICE SIOUX FALLS SD
1100 PM CDT SUN AUG 30 2015

NOTE: "FAIR" INDICATES FEW OR NO CLOUDS BELOW 12,000 FEET WITH NO
SIGNIFICANT WEATHER AND OR OBSTRUCTIONS TO VISIBILITY.


SDZ038>040-050-052>070-310500-
SOUTHEAST SOUTH DAKOTA

CITY           SKY/WX    TMP DP  RH WIND       PRES   REMARKS
BROOKINGS      MOCLDY    64  63  94 S17       29.90S
CHAMBERLAIN    NOT AVBL
HURON          CLEAR     70  65  84 S14G25    29.78F
MADISON        MOCLDY    64  64 100 S16G25    29.88F
MITCHELL       CLEAR     69  66  90 S16       29.82F
SIOUX FALLS    CLOUDY    67  64  90 S10       29.91S
WINNER         FAIR      79  59  50 S25G32    29.76S
YANKTON        PTCLDY    68  64  88 SE6       29.89S
$$

MNZ071-072-080-081-089-090-097-098-310500-
SOUTHWEST MINNESOTA

CITY           SKY/WX    TMP DP  RH WIND       PRES   REMARKS
FAIRMONT       CLEAR     64  61  88 S7        29.95S
JACKSON        CLEAR     66  64  94 S12       29.96S FOG
LUVERNE          N/A     64  63  94 S6        29.94S FOG
MARSHALL       MOCLDY    66  61  82 S15G21    29.88F
MONTEVIDEO     MOCLDY    66  64  94 S9        29.87S
PIPESTONE      CLOUDY    66  64  94 S12G17    29.92S FOG
REDWOOD FALLS  PTCLDY    67  65  93 S10       29.90S
TRACY          PTCLDY    67  65  94 SW18G24   29.90R
WINDOM         CLEAR     66  64  94 S9        29.94R
WORTHINGTON    PTCLDY    64  61  88 S13       29.94S
$$

IAZ001>003-012>014-020>022-031-032-NEZ013-014-SDZ071-310500-
NORTHWEST IOWA

CITY           SKY/WX    TMP DP  RH WIND       PRES   REMARKS
DENISON        CLOUDY    66  64  94 CALM      29.96F
ESTHERVILLE    CLEAR     63  63 100 S8        29.96S FOG
SIOUX CITY     NOT AVBL
SPENCER        CLEAR     64  62  93 S6        29.96S FOG
$$

ABBREVIATIONS USED IN REMARKS
   TC - TEMPERATURE IN CELSIUS
  WCI - WIND CHILL INDEX
   HX - HEAT INDEX
  VSB - VISIBILITY




USA.gov is the U.S. government's official web portal to all federal, state and local government web resources and services.